{"data":{"norad_id":60598,"intl_designator":"2024-150R","name":"STARLINK-32208","alt_names":[],"object_type":"PAYLOAD","status":"ACTIVE","operator":null,"country":"US","launch_date":"2024-08-20","launch_site_code":"AFETR","launch_vehicle":null,"mission":null,"orbit_class":"UNKNOWN","rcs_meters":null,"size_class":null,"mass_kg":null,"dimensions":null,"purposes":["comms"],"wikipedia_slug":null,"has_3d_model":false,"image_url":null,"decayed_at":null,"tle_current":{"epoch":"2026-09-21T21:45:55.469664Z","epoch_age_seconds":67340,"freshness":"FRESH","line1":"1 60598U 24150R   26264.90689201  .00006919  00000+0  21577-3 0  9994","line2":"2 60598  53.1588 114.8782 0001030  91.0218 269.0902 15.34394364118095","mean_motion":15.34394364,"eccentricity":0.000103,"inclination_deg":53.1588,"raan_deg":114.8782,"arg_perigee_deg":91.0218,"mean_anomaly_deg":269.0902,"bstar":0.00021577,"rev_number":11809,"period_min":93.848102794517,"perigee_km":462.01538336798,"apogee_km":463.42459990825,"semimajor_km":6840.8569916381,"source":"CELESTRAK","updated_at":"2026-09-22T09:00:49.274665Z"}}}